    Orbital elements:
    2017 FQ                                                  Earth MOID = 0.1963 AU
    Epoch 2017 Feb. 16.0 TT = JDT 2457800.5                 MPC
    M 301.28193              (2000.0)            P               Q
    n   0.62376119     Peri.   54.91986     -0.61959302     +0.78180960
    a   1.3566167      Node   174.80139     -0.67947495     -0.57877578
    e   0.1752718      Incl.   50.42917     +0.39296092     +0.23193178
    P   1.58           H   21.3           G   0.15           U   8
    Residuals in seconds of arc
    170317 G96  0.1+  0.4-    170317 300  0.2+  0.5-    170318 H36  0.4+  0.2+
    170317 G96  0.2+  0.1-    170317 Q62  0.0   0.8+    170318 H36  0.4-  0.0
    170317 G96  0.1+  0.1-    170317 Q62  0.1-  0.2+    170318 G96  0.2+  0.1-
    170317 G96  0.2+  0.4-    170317 Q62  0.2-  0.3-    170318 G96  0.1+  0.1-
    170317 G96  0.0   0.0     170317 160  0.4+  0.0     170318 G96  0.0   0.1-
    170317 G96  0.1-  0.6+    170317 160  0.2+  0.4+    170318 G96  0.1-  0.2-
    170317 G96  0.2+  0.4-    170317 160  0.2+  0.2-    170318 926  0.1-  0.2-
    170317 G96  0.5+  0.4-    170317 160  0.0   0.1-    170318 926  0.4-  0.2-
    170317 G96  0.5+  0.2-    170317 160  0.0   0.5-    170318 926  0.0   0.6-
    170317 G96  0.2-  0.1-    170317 C77  0.1+  0.1-    170318 I93  0.1-  0.0
    170317 G96  0.2-  0.1+    170317 C77  0.4-  0.8-    170318 I93  0.5-  0.2-
    170317 G96  0.3-  0.2+    170317 C77  0.0   1.3+    170318 I93  0.3-  0.3-
    170317 H01  0.2+  0.0     170317 104  0.1+  0.7-    170318 204  0.2+  0.1-
    170317 H01  0.1+  0.0     170317 J22  0.2-  0.3+    170318 204  0.3-  0.5-
    170317 H01  0.1+  0.0     170317 J22  0.3+  0.2-    170318 958  0.4-  0.8+
    170317 691  0.1-  0.3+    170317 104  0.1+  0.0     170318 204  0.1-  0.1+
    170317 H01  0.0   0.2-    170317 J22  0.1-  0.2+    170318 958  0.2+  0.8+
    170317 691  0.1+  0.4+    170317 B74  0.3-  0.1+    170318 958  0.3-  0.5+
    170317 300  0.1-  0.7+    170317 B74  0.2-  0.4+    170319 703  0.7+  0.6+
    170317 300  1.0-  0.2-    170317 104  0.2+  0.1+    170319 703  0.5+  0.3-
    170317 300  0.1+  0.2+    170317 B74  0.2+  0.3-    170319 703  0.5+  0.5-
    170317 300  0.5-  0.2+    170318 H36  0.6-  0.2-    170319 703  0.0   0.0
    170317 300  0.1+  0.7-    170318 H36  0.3+  0.5+
    
    Ephemeris:
    2017 FQ                  a,e,i = 1.36, 0.18, 50                  q = 1.1188
    Date    TT    R. A. (2000) Decl.     Delta      r     Elong.  Phase     V
    2017 02 17    11 26 54.3 -51 31 46   0.4864  1.2651   113.8    45.6    22.0
    ...
    2017 03 04    11 11 02.6 -36 22 55   0.2996  1.2277   137.0    33.4    20.5
    ...
    2017 03 12    10 58 02.1 -16 27 34   0.2281  1.2090   158.8    17.3    19.4
    ...
    2017 03 18    10 47 22.8 +05 49 43   0.2074  1.1957   163.6    13.6    19.1
    2017 03 19    10 45 36.0 +09 48 13   0.2077  1.1935   160.7    16.0    19.1
    2017 03 20    10 43 49.7 +13 44 33   0.2090  1.1914   157.3    18.8    19.2
    ...
    2017 03 26    10 33 42.1 +34 40 59   0.2375  1.1791   135.6    36.3    20.0
    ...
    2017 04 03    10 22 49.2 +52 34 24   0.3115  1.1640   114.5    51.4    21.0
    ...
    2017 04 18    10 15 27.8 +67 19 51   0.4841  1.1409    93.5    61.4    22.2
    
    A. U. Tomatic                (C) Copyright 2017 MPC           M.P.E.C. 2017-F23
    

    Read MPEC 2017-F22 Read MPEC 2017-F24


    MPEC number:

    Enter an MPEC number in one of the following forms:

    • 1997-B01 (the full form)
    • J97B01 (the packed version of the full form)
    • B01 (the abbreviated form)